FENGYUN 1C DEB

Satellite information

Favourite Embed

Satellite Type and Status

DEBRISIN ORBIT

Key statistics

Satellite FENGYUN 1C DEB at a glance.

Uptime

9556

Days in orbit

Revolutions

≈ 14.4

Per day

Orbit

SSO

Sun Synchronous Orbit

Inclination

99.1

Latest

Satellite identification and parameters

Extended collection of information and parameters for FENGYUN 1C DEB.

Object identification

Identified? True

Debris? True

Object name: FENGYUN 1C DEB

International designator: 1999-025BVB

Object number (NORAD): 31463

Object ID (CCSDS): 31463

Country: PEOPLES REPUBLIC OF CHINA (PRC)

Current information (Y/N): Y

RCS size: SMALL

Orbital parameters

Period: 100.257 minutes

Inclination: 99.0591 deg

SMA: 7148.869 km

Apoapsis: 924.654 km

Periapsis: 616.815 km

RAAN: 160.8811 deg

Eccentricy: 0.0215306

Argument of periapsis: 145.4037 deg

Mean anomaly: 216.1374 deg

Mean motion: 14.3630523 rev/day

Mean motion (dot): 0.00000738 rev/day2

B* drag term: 0.00020834 1/REarth

Two-line elements (TLE)

Creation date: July 6, 2025, 10:46 p.m.

Reference frame: TEME

Reference center: EARTH

Epoch: July 6, 2025, 5:57 p.m. UTC

TLE line 0: 0 FENGYUN 1C DEB

TLE line 1: 1 31463U 99025BVB 25187.74826936 .00000738 00000-0 20834-3 0 9998

TLE line 2: 2 31463 99.0591 160.8811 0215306 145.4037 216.1374 14.36305230950283

Live tracking on map

Real-time ground track for satellite FENGYUN 1C DEB.

In-orbit conjunctions

A list of the most updated potential collisions computed for object FENGYUN 1C DEB.

Target Orbit TCA Probability of collision Miss distance Type
COSMOS 1275 DEB LEO 2025-03-11 06:17:40 0.0002484372 50.0 (m) DEBRIS
CZ-6A DEB LEO 2024-10-11 12:38:02 0.0001231515 181.0 (m) DEBRIS
COSMOS 2251 DEB LEO 2024-08-25 21:47:15 0.000443386 71.0 (m) DEBRIS

Associated space launch

Chinese polar orbiting meteorological satellite

FENGYUN 1C DEB was lifted into orbit during the mission ‘Long March 4B | Feng Yun 1C’, on board a Long March 4B space rocket.

The launch took place on May 10, 1999, 1:33 a.m. from Launch Complex 7.

For more information about the launch, click the button.

Launch to space Long March 4B | Feng Yun 1C
Long March 4B | Feng Yun 1C

Agency: N/A

Status: Launch Successful

Launch date: May 10, 1999, 1:33 a.m. UTC

Rocket: Long March 4B

Launch pad: Launch Complex 7

Location: Taiyuan Satellite Launch Center, People's Republic of China

...

Latest news about this satellite

There are no fresh news available about this satellite. Check back as we update our databases every day.


Newsletter sign-up

Weekly statistics, charts and insights to help you stay on top of the space industry.